Regional Weather Roundup
Issued by NWS

Home | Current Version | Previous Version | Graphics & Text | Print | Product List | Glossary On
Versions: 1 2 3 4 5 6 7 8 9 10 11 12 13 14 15 16 17 18 19 20 21 22 23 24 25 26 27 28 29 30 31 32 33 34 35 36 37 38 39 40 41 42 43 44 45 46 47 48 49 50
000
ASUS45 KBOU 300407
RWRCO

WEATHER ROUNDUP FOR COLORADO
NATIONAL WEATHER SERVICE DENVER/BOULDER CO
1000 PM MDT MON SEP 29 2014

NOTE: "FAIR" INDICATES FEW OR NO CLOUDS BELOW 12000 FEET WITH NO
SIGNIFICANT WEATHER AND/OR OBSTRUCTIONS TO VISIBILITY.

COZ001>005-013-030-031-300500-
...NORTHWEST COLORADO...

CITY           SKY/WX    TMP DP  RH WIND       PRES   REMARKS
CRAIG          CLOUDY    47  37  68 SW9       30.02R
HAYDEN         CLOUDY    45  37  76 CALM      30.02R
MEEKER         MOCLDY    42  40  92 NE5       30.06R
MOUNT WERNER   NOT AVBL
STEAMBOAT SPGS CLOUDY    41  38  90 E5        30.02R
WALDEN         CLOUDY    37  36  93 S5        30.01R
$$

COZ006>008-011-300500-
...WEST CENTRAL VALLEYS...

CITY           SKY/WX    TMP DP  RH WIND       PRES   REMARKS
GRAND JUNCTION PTCLDY    47  44  90 E5        30.04S
MONTROSE       MOCLDY    45  43  93 CALM      30.10R
EAGLE          CLOUDY    45  43  93 CALM      30.10R
RIFLE          CLOUDY    47  44  90 E5        30.06R
DELTA          RAIN      47  45  91 E3        30.09R
NUCLA          MOCLDY    48  43  81 E6        30.13R
$$

COZ017>023-064>068-300500-
...SOUTHWEST COLORADO...

CITY           SKY/WX    TMP DP  RH WIND       PRES   REMARKS
DURANGO        MOCLDY    46  38  73 NW5       30.11R
CORTEZ         CLEAR     49  43  80 NE3       30.10R
PAGOSA SPRINGS MOCLDY    40  39  99 CALM      30.16R
TELLURIDE      NOT AVBL
WOLF CREEK PAS SNOW      27  27 100 SW30G38   30.24R VSB 1/4 WCI  10
$$

COZ009-010-012-014-032>034-037-058>063-300500-
...CENTRAL COLORADO...

CITY           SKY/WX    TMP DP  RH WIND       PRES   REMARKS
ASPEN          LGT RAIN  40  36  86 S3        30.10R
BUENA VISTA    CLOUDY    46  29  51 W13       30.05R
COPPER MTN     CLOUDY    32  28  86 W16G23    30.16R WCI  21
BERTHOUD PASS  CLOUDY    23  21  93 MISG      30.12R
COTTONWOOD PAS MOCLDY    41  28  60 W16G31    30.08R
GUNNISON       CLOUDY    41  34  75 N5        30.13R
KREMMLING      DRIZZLE   37  34  87 W7        30.07R
LEADVILLE      CLOUDY    33  30  88 N9        30.11R WCI  25
MONARCH PASS   FOG       28  27  93 MISG      30.26S VSB<1/4
SALIDA         CLOUDY    48  32  53 W21       30.11R
SUNLIGHT       CLOUDY    32  32 100 CALM      30.18R
WILKERSON PASS NOT AVBL
$$

COZ069>075-300500-
...SAN LUIS VALLEY/SANGRE DE CRISTO MOUNTAINS...

CITY           SKY/WX    TMP DP  RH WIND       PRES   REMARKS
ALAMOSA        PTCLDY    44  33  65 W6        30.09R
LA VETA PASS   NOT AVBL
SAGUACHE       CLOUDY    41  34  75 W5        30.10R
$$

COZ035-036-038>040-300500-
...NORTHERN COLORADO FRONT RANGE...

CITY           SKY/WX    TMP DP  RH WIND       PRES   REMARKS
DENVER INTL AP TSTM      48  45  89 W17       29.92R FOG
DMNS CITY PARK   N/A     48  46  91 NE5G12    29.90S
AURORA         TSTM      47  47 100 N10       29.94R FOG
FRONT RANGE AP CLOUDY    50  46  87 NW18G29   29.91R
ERIE MUNI ARPT RAIN      49  46  90 CALM      29.89R
BOULDER MUN AP CLOUDY    50  46  87 E6        29.87R
CENTENNIAL     TSTM      47  45  93 N10       29.94R
BROOMFIELD     LGT RAIN  48  46  93 NE8       29.90R
FORT COLLINS   CLOUDY    48  43  81 N13       29.88R
LONGMONT       DRIZZLE   52  47  86 CALM      29.89R
$$

COZ041-046-047-076>085-087-088-300500-
...PIKES PEAK/PALMER DIVIDE AND SOUTHERN FOOTHILLS...

CITY           SKY/WX    TMP DP  RH WIND       PRES   REMARKS
COLO. SPRINGS  MOCLDY    53  32  44 SW6       29.90S
A. F. ACADEMY  MOCLDY    54  27  35 NW15      29.94R
ELLICOTT       NOT AVBL
FALCON         MOCLDY    48  35  61 N6        29.96R
FORT CARSON    PTCLDY    53  32  43 SE5       29.89F
LIMON          PTCLDY    49  48  97 S7        29.86F
MONUMENT HILL  RAIN      39  37  93 W10       30.00R
TRINIDAD       CLEAR     52  38  58 S8        29.97R
$$

COZ042>045-048>051-090-091-300500-
...NORTHEAST COLORADO...

CITY           SKY/WX    TMP DP  RH WIND       PRES   REMARKS
GREELEY ARPT   CLOUDY    48  43  81 N15       29.85R
AKRON          LGT RAIN  55  53  93 S5        29.80R
BURLINGTON     CLOUDY    55  52  89 S12       29.84F
WRAY           CLOUDY   N/A N/A N/A SE8       29.77F
STERLING       LGT RAIN  55  54  94 N21G32    29.72R
HOLYOKE        LGT RAIN  59  55  88 E10       29.72F
FORT MORGAN    RAIN      51  47  87 W22G29    29.82R
$$

COZ086-089-092>099-300500-
...SOUTHEAST COLORADO...

CITY           SKY/WX    TMP DP  RH WIND       PRES   REMARKS
PUEBLO         CLEAR     57  39  51 W14       29.87R
LA JUNTA       CLEAR     57  45  64 MISG      29.88R
LAMAR          CLEAR     60  54  80 S18       29.85R
SPRINGFIELD      N/A     58  56  93 S14       29.94R
$$



USA.gov is the U.S. government's official web portal to all federal, state and local government web resources and services.